Date,TemperatureHighF,TemperatureAvgF,TemperatureLowF,DewpointHighF,DewpointAvgF,DewpointLowF,HumidityHigh,HumidityAvg,HumidityLow,PressureMaxIn,PressureMinIn,WindSpeedMaxMPH,WindSpeedAvgMPH,GustSpeedMaxMPH,PrecipitationSumIn
2013-3-1,52,39,24,30,6,-27,48,26,1,29.93,29.86,0,0,0,0.00
2013-3-2,48,40,32,24,0,-17,43,17,1,29.94,29.82,0,0,0,0.00
2013-3-3,46,33,23,22,2,-26,52,28,1,30.01,29.89,0,0,0,0.00
2013-3-4,55,39,24,25,16,2,51,40,24,30.14,30.00,0,0,0,0.00
2013-3-5,62,48,40,32,10,-10,52,22,1,30.06,29.63,0,0,0,0.00
2013-3-6,47,40,29,27,7,-21,46,27,1,30.11,29.66,0,0,0,0.00
2013-3-7,57,40,23,33,6,-39,49,25,1,30.25,30.11,0,0,0,0.00
2013-3-8,60,43,27,30,13,-22,50,31,1,30.31,30.17,0,0,0,0.00
2013-3-9,65,48,31,37,24,-15,52,40,14,30.35,30.21,0,0,0,0.00
2013-3-10,70,52,36,43,20,-16,50,30,1,30.29,30.15,0,0,0,0.00
2013-3-11,71,54,42,43,10,-11,48,15,1,30.17,29.84,0,0,0,0.00
2013-3-12,67,58,46,40,14,-1,47,15,1,30.00,29.76,0,0,0,0.00
2013-3-13,59,48,37,31,22,4,52,37,21,30.16,29.98,0,0,0,0.00
2013-3-14,55,40,27,26,19,12,56,44,21,30.29,30.15,0,0,0,0.00
2013-3-15,70,52,31,42,30,16,56,45,35,30.18,29.90,0,0,0,0.00
2013-3-16,78,67,56,51,44,37,51,44,35,29.92,29.76,0,0,0,0.00
2013-3-17,83,65,48,54,38,-6,53,39,1,30.07,29.87,0,0,0,0.00
2013-3-18,48,44,41,-6,-10,-11,1,1,1,30.11,29.85,0,0,0,0.00
2013-3-19,67,53,43,34,12,-10,41,18,1,30.05,29.84,0,0,0,0.00
2013-3-20,61,50,41,26,20,14,45,31,22,30.11,29.79,0,0,0,0.00
2013-3-21,48,40,30,27,15,6,52,37,24,29.95,29.81,0,0,0,0.00
2013-3-22,54,39,25,26,19,11,57,45,30,30.08,29.95,0,0,0,0.00
2013-3-23,54,45,40,28,4,-12,53,18,1,30.03,29.89,0,0,0,0.00
2013-3-24,47,44,41,-7,-9,-11,1,1,1,29.91,29.56,0,0,0,0.00
2013-3-25,49,42,36,25,8,-16,48,25,1,29.91,29.55,0,0,0,0.00
2013-3-26,50,39,28,28,8,-22,49,31,1,30.18,29.90,0,0,0,0.00
2013-3-27,56,42,28,29,12,-22,52,31,1,30.25,30.15,0,0,0,0.00
2013-3-28,60,45,29,28,15,-16,53,32,9,30.30,30.16,0,0,0,0.00
2013-3-29,66,48,29,36,18,-21,53,32,1,30.33,30.19,0,0,0,0.00
2013-3-30,70,56,45,44,17,-9,43,21,1,30.21,30.04,0,0,0,0.00
2013-3-31,73,59,49,26,4,-5,31,3,1,30.05,29.84,0,0,0,0.00